AFL400 UUEE-ULLI

Flight info

Callsign AFL400
Flight time 0h 58m
Altitude 36000
Route TOKNU3H TOKNU L4 NUDKO T561 ODATI T875 GENPA GENPA1V
Aircraft A21N/M-SDE2E3FGHIRWXY/LB1

Departure

Time 2026-04-30 09:48
Airport Sheremetyevo International Airport (UUEE)

Arrival

Time 2026-04-30 10:47
Airport Pulkovo Airport (ULLI)
Time Latitude Longitude Altitude Speed Heading
2026-04-30 09:12 55.97637 37.40415 639 ft 0 kts 345°
2026-04-30 09:26 55.97637 37.40416 639 ft 0 kts 345°
2026-04-30 09:42 55.97639 37.40415 639 ft 0 kts 345°
2026-04-30 09:42 55.97661 37.40404 639 ft 6 kts 345°
2026-04-30 09:42 55.97700 37.40421 639 ft 6 kts 40°
2026-04-30 09:43 55.97714 37.40503 639 ft 8 kts 76°
2026-04-30 09:43 55.97689 37.40588 639 ft 9 kts 158°
2026-04-30 09:43 55.97612 37.40624 639 ft 12 kts 158°
2026-04-30 09:43 55.97601 37.40781 639 ft 16 kts 78°
2026-04-30 09:44 55.97606 37.40948 639 ft 11 kts 107°
2026-04-30 09:44 55.97615 37.41113 639 ft 15 kts 74°
2026-04-30 09:44 55.97646 37.41316 639 ft 18 kts 74°
2026-04-30 09:44 55.97682 37.41566 640 ft 23 kts 75°
2026-04-30 09:45 55.97729 37.41866 639 ft 27 kts 76°
2026-04-30 09:45 55.97745 37.42103 639 ft 12 kts 132°
2026-04-30 09:45 55.97690 37.42218 639 ft 15 kts 80°
2026-04-30 09:45 55.97725 37.42429 639 ft 20 kts 73°
2026-04-30 09:46 55.97761 37.42688 639 ft 15 kts 75°
2026-04-30 09:46 55.97732 37.42794 639 ft 6 kts 156°
2026-04-30 09:46 55.97726 37.42798 639 ft 0 kts 158°
2026-04-30 09:47 55.97724 37.42799 639 ft 1 kts 159°
2026-04-30 09:47 55.97701 37.42809 639 ft 5 kts 164°
2026-04-30 09:47 55.97654 37.42840 639 ft 9 kts 152°
2026-04-30 09:47 55.97605 37.42820 639 ft 8 kts 239°
2026-04-30 09:48 55.97552 37.42472 639 ft 66 kts 255°
2026-04-30 09:48 55.97364 37.41217 641 ft 141 kts 253°
2026-04-30 09:48 55.97070 37.39282 1028 ft 178 kts 258°
2026-04-30 09:48 55.96745 37.37137 2297 ft 171 kts 257°
2026-04-30 09:49 55.96411 37.35063 3210 ft 181 kts 257°
2026-04-30 09:49 55.96041 37.32788 3631 ft 210 kts 257°
2026-04-30 09:49 55.95607 37.30059 4050 ft 244 kts 256°
2026-04-30 09:49 55.95132 37.27023 4907 ft 257 kts 256°
2026-04-30 09:50 55.94654 37.23975 6166 ft 256 kts 256°
2026-04-30 09:50 55.94170 37.20870 7146 ft 262 kts 256°
2026-04-30 09:50 55.93674 37.17721 8179 ft 265 kts 256°
2026-04-30 09:50 55.93170 37.14528 9137 ft 270 kts 256°
2026-04-30 09:51 55.92659 37.11280 9972 ft 279 kts 256°
2026-04-30 09:51 55.92123 37.07883 9992 ft 279 kts 256°
2026-04-30 09:51 55.91669 37.04556 9993 ft 280 kts 266°
2026-04-30 09:51 55.91927 37.01218 10016 ft 271 kts 292°
2026-04-30 09:52 55.92944 36.98387 10010 ft 270 kts 316°
2026-04-30 09:52 55.94445 36.96356 10005 ft 273 kts 325°
2026-04-30 09:52 55.95999 36.94471 10000 ft 271 kts 325°
2026-04-30 09:52 55.97552 36.92546 10005 ft 270 kts 324°
2026-04-30 09:53 55.99099 36.90633 10001 ft 272 kts 328°
2026-04-30 09:53 56.00857 36.89326 10187 ft 278 kts 342°
2026-04-30 09:53 56.02683 36.88316 11178 ft 277 kts 341°
2026-04-30 09:53 56.04564 36.87191 11654 ft 295 kts 340°
2026-04-30 09:54 56.06573 36.85948 12039 ft 316 kts 341°
2026-04-30 09:54 56.08642 36.84411 12683 ft 324 kts 327°
2026-04-30 09:54 56.10369 36.81846 13676 ft 324 kts 317°
2026-04-30 09:54 56.12033 36.79052 14365 ft 331 kts 317°
2026-04-30 09:55 56.13693 36.76249 15113 ft 333 kts 317°
2026-04-30 09:55 56.15419 36.73366 15832 ft 337 kts 317°
2026-04-30 09:55 56.17154 36.70469 16284 ft 348 kts 317°
2026-04-30 09:55 56.18891 36.67555 16232 ft 340 kts 317°
2026-04-30 09:56 56.20627 36.64634 16245 ft 345 kts 317°
2026-04-30 09:56 56.22390 36.61671 16242 ft 341 kts 317°
2026-04-30 09:56 56.24139 36.58727 16736 ft 345 kts 317°
2026-04-30 09:56 56.25852 36.55831 17650 ft 343 kts 317°
2026-04-30 09:57 56.27630 36.52824 18205 ft 349 kts 317°
2026-04-30 09:57 56.29379 36.49863 18843 ft 351 kts 317°
2026-04-30 09:57 56.31168 36.46833 19412 ft 354 kts 317°
2026-04-30 09:57 56.32969 36.43777 19958 ft 357 kts 318°
2026-04-30 09:58 56.34786 36.40687 20514 ft 360 kts 318°
2026-04-30 09:58 56.36537 36.37445 21046 ft 364 kts 310°
2026-04-30 09:58 56.38023 36.33715 21559 ft 368 kts 307°
2026-04-30 09:58 56.39479 36.29890 22063 ft 371 kts 307°
2026-04-30 09:59 56.42498 36.22241 23052 ft 377 kts 309°
2026-04-30 09:59 56.45542 36.14440 23961 ft 383 kts 309°
2026-04-30 10:00 56.48626 36.06512 24706 ft 388 kts 309°
2026-04-30 10:00 56.50188 36.02523 25062 ft 390 kts 309°
2026-04-30 10:01 56.53326 35.94424 25785 ft 395 kts 309°
2026-04-30 10:01 56.54907 35.90321 26124 ft 398 kts 309°
2026-04-30 10:01 56.56503 35.86200 26468 ft 401 kts 309°
2026-04-30 10:02 56.59718 35.77858 27132 ft 406 kts 309°
2026-04-30 10:02 56.61336 35.73642 27462 ft 408 kts 309°
2026-04-30 10:02 56.62962 35.69406 27795 ft 410 kts 309°
2026-04-30 10:02 56.64596 35.65144 28108 ft 413 kts 309°
2026-04-30 10:03 56.66239 35.60834 28422 ft 415 kts 308°
2026-04-30 10:03 56.67879 35.56510 28740 ft 417 kts 308°
2026-04-30 10:03 56.69512 35.52207 29038 ft 420 kts 308°
2026-04-30 10:03 56.71196 35.47770 29346 ft 422 kts 308°
2026-04-30 10:04 56.72845 35.43414 29638 ft 424 kts 308°
2026-04-30 10:04 56.74519 35.38976 29939 ft 426 kts 308°
2026-04-30 10:04 56.76202 35.34509 30241 ft 429 kts 308°
2026-04-30 10:04 56.77893 35.30018 30496 ft 431 kts 308°
2026-04-30 10:05 56.79592 35.25495 30719 ft 433 kts 308°
2026-04-30 10:05 56.81291 35.20960 30962 ft 434 kts 308°
2026-04-30 10:05 56.83001 35.16387 31193 ft 436 kts 308°
2026-04-30 10:05 56.84714 35.11799 31416 ft 439 kts 308°
2026-04-30 10:06 56.86437 35.07178 31647 ft 440 kts 308°
2026-04-30 10:06 56.88156 35.02556 31971 ft 440 kts 308°
2026-04-30 10:06 56.89878 34.97934 32294 ft 439 kts 309°
2026-04-30 10:06 56.91910 34.93850 32588 ft 431 kts 323°
2026-04-30 10:07 56.94343 34.90690 32876 ft 428 kts 330°
2026-04-30 10:07 56.96854 34.87733 33136 ft 429 kts 330°
2026-04-30 10:07 56.99359 34.84771 33435 ft 429 kts 330°
2026-04-30 10:07 57.01859 34.81762 33746 ft 429 kts 329°
2026-04-30 10:08 57.04356 34.78747 34024 ft 430 kts 329°
2026-04-30 10:08 57.06864 34.75742 34280 ft 430 kts 330°
2026-04-30 10:08 57.09371 34.72739 34507 ft 431 kts 329°
2026-04-30 10:08 57.11874 34.69719 34740 ft 431 kts 329°
2026-04-30 10:09 57.14381 34.66686 34960 ft 431 kts 329°
2026-04-30 10:09 57.16893 34.63650 35164 ft 432 kts 329°
2026-04-30 10:09 57.19409 34.60608 35389 ft 432 kts 329°
2026-04-30 10:09 57.21891 34.57596 35598 ft 433 kts 329°
2026-04-30 10:10 57.24434 34.54505 35816 ft 433 kts 329°
2026-04-30 10:10 57.26926 34.51472 36021 ft 434 kts 329°
2026-04-30 10:10 57.29483 34.48355 36212 ft 435 kts 329°
2026-04-30 10:11 57.34538 34.42180 36260 ft 442 kts 329°
2026-04-30 10:11 57.39658 34.35897 36258 ft 441 kts 329°
2026-04-30 10:12 57.44765 34.29616 36258 ft 440 kts 329°
2026-04-30 10:12 57.49856 34.23328 36258 ft 439 kts 329°
2026-04-30 10:13 57.54945 34.17025 36257 ft 439 kts 329°
2026-04-30 10:13 57.60028 34.10704 36252 ft 439 kts 329°
2026-04-30 10:14 57.65095 34.04387 36254 ft 438 kts 329°
2026-04-30 10:14 57.72697 33.94863 36254 ft 438 kts 329°
2026-04-30 10:15 57.77750 33.88506 36258 ft 438 kts 328°
2026-04-30 10:15 57.82807 33.82123 36253 ft 437 kts 329°
2026-04-30 10:16 57.87815 33.75636 36243 ft 439 kts 324°
2026-04-30 10:17 57.94945 33.64794 36248 ft 439 kts 324°
2026-04-30 10:17 58.02071 33.53931 36245 ft 439 kts 324°
2026-04-30 10:18 58.04444 33.50306 36244 ft 438 kts 324°
2026-04-30 10:19 58.18604 33.28521 36235 ft 438 kts 323°
2026-04-30 10:20 58.23323 33.21215 36236 ft 437 kts 323°
2026-04-30 10:20 58.30384 33.10232 36234 ft 437 kts 323°
2026-04-30 10:21 58.35088 33.02888 36237 ft 437 kts 323°
2026-04-30 10:21 58.39703 32.95647 35352 ft 430 kts 324°
2026-04-30 10:22 58.42025 32.92003 34369 ft 434 kts 324°
2026-04-30 10:22 58.44332 32.88370 33738 ft 425 kts 324°
2026-04-30 10:22 58.46584 32.84811 33105 ft 415 kts 324°
2026-04-30 10:22 58.48791 32.81326 32381 ft 409 kts 324°
2026-04-30 10:23 58.50966 32.77890 31742 ft 401 kts 323°
2026-04-30 10:23 58.53096 32.74511 31074 ft 395 kts 323°
2026-04-30 10:23 58.55190 32.71186 30446 ft 388 kts 323°
2026-04-30 10:23 58.56588 32.68965 29963 ft 383 kts 323°
2026-04-30 10:24 58.58597 32.65768 29179 ft 378 kts 323°
2026-04-30 10:24 58.60621 32.62544 28645 ft 384 kts 323°
2026-04-30 10:24 58.62736 32.59178 28114 ft 405 kts 323°
2026-04-30 10:24 58.64899 32.55712 27590 ft 399 kts 323°
2026-04-30 10:25 58.66988 32.52346 27071 ft 385 kts 323°
2026-04-30 10:25 58.69013 32.49098 26568 ft 373 kts 323°
2026-04-30 10:25 58.70976 32.45954 26091 ft 362 kts 323°
2026-04-30 10:25 58.72877 32.42894 25605 ft 352 kts 322°
2026-04-30 10:26 58.74746 32.39880 25150 ft 350 kts 322°
2026-04-30 10:26 58.76612 32.36869 24685 ft 349 kts 322°
2026-04-30 10:26 58.78463 32.33879 24225 ft 346 kts 322°
2026-04-30 10:26 58.80303 32.30900 23768 ft 344 kts 322°
2026-04-30 10:27 58.82128 32.27935 23269 ft 341 kts 322°
2026-04-30 10:27 58.83938 32.24996 22824 ft 340 kts 322°
2026-04-30 10:27 58.85743 32.22065 22376 ft 338 kts 322°
2026-04-30 10:27 58.87530 32.19155 21927 ft 335 kts 322°
2026-04-30 10:28 58.89311 32.16250 21472 ft 334 kts 322°
2026-04-30 10:28 58.91078 32.13363 21045 ft 332 kts 322°
2026-04-30 10:28 58.92837 32.10487 20606 ft 330 kts 322°
2026-04-30 10:28 58.94584 32.07628 20173 ft 328 kts 322°
2026-04-30 10:29 58.96320 32.04781 19737 ft 326 kts 322°
2026-04-30 10:29 58.98042 32.01951 19301 ft 324 kts 322°
2026-04-30 10:29 58.99757 31.99132 18886 ft 322 kts 322°
2026-04-30 10:29 59.01438 31.96366 18463 ft 320 kts 322°
2026-04-30 10:30 59.03134 31.93568 17997 ft 318 kts 322°
2026-04-30 10:30 59.04812 31.90799 17582 ft 316 kts 322°
2026-04-30 10:30 59.06485 31.88036 17165 ft 315 kts 322°
2026-04-30 10:30 59.08142 31.85293 16755 ft 313 kts 322°
2026-04-30 10:31 59.09799 31.82545 16339 ft 312 kts 322°
2026-04-30 10:31 59.11400 31.79712 15929 ft 311 kts 318°
2026-04-30 10:31 59.12943 31.76757 15522 ft 310 kts 319°
2026-04-30 10:31 59.14492 31.73851 15113 ft 308 kts 319°
2026-04-30 10:32 59.16034 31.70956 14706 ft 307 kts 319°
2026-04-30 10:32 59.17559 31.68058 14297 ft 306 kts 318°
2026-04-30 10:32 59.19073 31.65173 13877 ft 303 kts 318°
2026-04-30 10:32 59.20578 31.62309 13467 ft 301 kts 318°
2026-04-30 10:33 59.22079 31.59456 13076 ft 300 kts 318°
2026-04-30 10:33 59.23571 31.56617 12674 ft 299 kts 318°
2026-04-30 10:33 59.25051 31.53789 12281 ft 297 kts 318°
2026-04-30 10:33 59.26524 31.50970 11888 ft 296 kts 318°
2026-04-30 10:34 59.27996 31.48154 11501 ft 295 kts 318°
2026-04-30 10:34 59.29440 31.45383 11117 ft 294 kts 317°
2026-04-30 10:34 59.30913 31.42552 10723 ft 292 kts 317°
2026-04-30 10:34 59.32349 31.39790 10337 ft 285 kts 317°
2026-04-30 10:35 59.33741 31.37109 9968 ft 276 kts 317°
2026-04-30 10:35 59.35072 31.34542 9585 ft 267 kts 317°
2026-04-30 10:35 59.36384 31.32014 9239 ft 264 kts 317°
2026-04-30 10:35 59.37693 31.29487 8895 ft 263 kts 317°
2026-04-30 10:36 59.39009 31.26943 8541 ft 262 kts 316°
2026-04-30 10:36 59.40281 31.24473 8201 ft 261 kts 316°
2026-04-30 10:36 59.41569 31.21979 7860 ft 259 kts 316°
2026-04-30 10:36 59.42851 31.19498 7515 ft 258 kts 316°
2026-04-30 10:37 59.44121 31.17024 7168 ft 256 kts 316°
2026-04-30 10:37 59.45385 31.14561 6832 ft 256 kts 316°
2026-04-30 10:37 59.46647 31.12109 6498 ft 254 kts 315°
2026-04-30 10:37 59.47901 31.09665 6155 ft 252 kts 315°
2026-04-30 10:38 59.49142 31.07242 5820 ft 251 kts 315°
2026-04-30 10:38 59.50382 31.04816 5497 ft 250 kts 315°
2026-04-30 10:38 59.51606 31.02418 5171 ft 247 kts 314°
2026-04-30 10:38 59.52714 30.99847 5179 ft 250 kts 310°
2026-04-30 10:39 59.53848 30.97287 5181 ft 247 kts 311°
2026-04-30 10:39 59.54997 30.94730 5178 ft 247 kts 311°
2026-04-30 10:39 59.56123 30.92152 5177 ft 247 kts 310°
2026-04-30 10:39 59.57242 30.89567 5184 ft 250 kts 310°
2026-04-30 10:40 59.58370 30.86978 5176 ft 249 kts 311°
2026-04-30 10:40 59.59497 30.84394 5176 ft 248 kts 311°
2026-04-30 10:40 59.60623 30.81809 5177 ft 247 kts 311°
2026-04-30 10:40 59.61751 30.79218 5181 ft 249 kts 310°
2026-04-30 10:41 59.62874 30.76627 5180 ft 249 kts 310°
2026-04-30 10:41 59.63998 30.74025 5181 ft 249 kts 310°
2026-04-30 10:41 59.65125 30.71425 5178 ft 249 kts 310°
2026-04-30 10:41 59.66255 30.68827 5179 ft 249 kts 311°
2026-04-30 10:42 59.67552 30.66570 5186 ft 250 kts 324°
2026-04-30 10:42 59.68961 30.64687 5182 ft 249 kts 325°
2026-04-30 10:42 59.70416 30.62700 5183 ft 247 kts 324°
2026-04-30 10:42 59.71831 30.60696 5079 ft 250 kts 324°
2026-04-30 10:43 59.73223 30.58751 4658 ft 248 kts 324°
2026-04-30 10:43 59.74474 30.56702 4081 ft 221 kts 307°
2026-04-30 10:43 59.75174 30.54095 3499 ft 211 kts 288°
2026-04-30 10:43 59.75558 30.51392 2798 ft 198 kts 287°
2026-04-30 10:44 59.75941 30.48886 2371 ft 182 kts 289°
2026-04-30 10:44 59.76304 30.46584 2102 ft 167 kts 288°
2026-04-30 10:44 59.76620 30.44438 1868 ft 155 kts 288°
2026-04-30 10:44 59.76904 30.42538 1643 ft 134 kts 289°
2026-04-30 10:45 59.77173 30.40728 1458 ft 135 kts 288°
2026-04-30 10:45 59.77434 30.39006 1237 ft 126 kts 288°
2026-04-30 10:45 59.77681 30.37349 1026 ft 124 kts 287°
2026-04-30 10:45 59.77929 30.35734 834 ft 124 kts 290°
2026-04-30 10:46 59.78179 30.34117 653 ft 119 kts 288°
2026-04-30 10:46 59.78412 30.32521 566 ft 121 kts 289°
2026-04-30 10:46 59.78646 30.30887 386 ft 122 kts 288°
2026-04-30 10:46 59.78893 30.29256 231 ft 126 kts 287°
2026-04-30 10:47 59.79113 30.27762 89 ft 115 kts 287°
2026-04-30 10:47 59.79292 30.26560 84 ft 67 kts 287°
2026-04-30 10:47 59.79387 30.25926 86 ft 40 kts 285°
2026-04-30 10:47 59.79463 30.25397 86 ft 39 kts 287°
2026-04-30 10:48 59.79541 30.24888 88 ft 39 kts 287°
2026-04-30 10:48 59.79622 30.24327 86 ft 45 kts 287°
2026-04-30 10:48 59.79718 30.23700 85 ft 50 kts 287°
2026-04-30 10:48 59.79822 30.23217 87 ft 34 kts 311°
2026-04-30 10:49 59.79960 30.23029 85 ft 18 kts
2026-04-30 10:49 59.79976 30.23145 84 ft 4 kts 103°
2026-04-30 10:49 59.79957 30.23286 89 ft 17 kts 105°
2026-04-30 10:49 59.79914 30.23570 86 ft 26 kts 104°
2026-04-30 10:50 59.79855 30.23989 87 ft 37 kts 106°
2026-04-30 10:50 59.79769 30.24538 88 ft 47 kts 107°
2026-04-30 10:50 59.79675 30.25192 86 ft 49 kts 108°
2026-04-30 10:50 59.79591 30.25739 85 ft 22 kts 105°
2026-04-30 10:51 59.79568 30.25940 86 ft 10 kts 84°
2026-04-30 10:51 59.79621 30.26017 84 ft 9 kts 39°
2026-04-30 10:51 59.79630 30.26102 83 ft 4 kts 98°
2026-04-30 10:51 59.79622 30.26146 85 ft 2 kts 107°
2026-04-30 10:52 59.79620 30.26161 86 ft 1 kts 105°
2026-04-30 10:52 59.79618 30.26181 85 ft 1 kts 106°
2026-04-30 10:52 59.79617 30.26182 85 ft 0 kts 106°